Location: Plainartige
(45.6866°N, 1.7993°E)
Time: 19:23:51
(UTC+00:00)

SJ 16-02 - Pass Details

Date: 03 March 2021
Orbit: 605 x 617 km, 75.0° (Epoch: 13 April)

Event Time Altitude Azimuth Distance (km) Brightness Sun altitude
Rises 19:34:24 0° 348° (NNW) 2,883 5.1 -20.2°
Reaches altitude 10° 19:36:53 10° 0° (N) 1,976 4.1 -20.7°
Enters shadow 19:39:33 25° 33° (NNE) 1,244 2.7 -21.1°
